STARLINK-1736 (46585 NORAD) Tracking and Keplerian Element Data

This shows tracking and keplerian element data for the satellite.

Feedback or suggestion? Click here.




ElementValue
Catalog46585
NameSTARLINK-1736
Epoch Orbit918
Epoch Day335.83336806
Epoch Year2020
RAAN170.5187
Inclination53
Eccentricity0.0001943
Argument of Perigee28.232
Mean Anonmoly41.8528
Mean Motion15.62760691
Decay Rate-0.00048081
L11 46585U 20070BF 20335.83336806 -.00048081 00000-0 -52215-3 0 9998
L22 46585 53.0000 170.5187 0001943 28.2320 41.8528 15.62760691 9180

Live tracking and technical data element details for STARLINK-1736 (NORAD 46585). STARLINK-1736 can be tracked NOW for your location showing map with azimuth and elevation plus other details from your city location.

Track the satellite on the map from your city or location and see movement details for azimuth, elevation, latitude, longitude, range, height, and movement on the map or in text.







IsCatalogInMostPopularTable: catalog: 46585, numindb: 16
Update: records affected: 1



GetName: 46585 STARLINK-1736

Hit Count: updated at: Wed, 02 Dec 2020 06:51:01 GMT